Regional Weather Roundup
Issued by NWS Pendleton, OR

Current Version | Previous Version | Text Only | Print | Product List | Glossary On
Versions: 1 2 3 4 5 6 7 8 9 10 11 12 13 14 15 16 17 18 19 20 21 22 23 24 25 26 27 28 29 30 31 32 33 34 35 36 37 38 39 40 41 42 43 44 45 46 47 48 49 50
000 ASUS46 KPDT 021725 RWRPDT PENDLETON REGIONAL WEATHER ROUNDUP NATIONAL WEATHER SERVICE PENDLETON OREGON 900 AM PST TUE MAR 2 2021 NOTE: FAIR INDICATES FEW OR NO CLOUDS BELOW 12,000 FEET WITH NO SIGNIFICANT WEATHER AND/OR OBSTRUCTIONS TO VISIBILITY. # INDICATES UNOFFICIAL STATION AND DATA WAZ520-021810- EAST SLOPES OF WASHINGTON CASCADES CITY SKY/WX TMP DP RH WIND PRES REMARKS #BULLFROG N/A 32 31 96 CALM N/A #EASTON DOT N/A 36 33 89 CALM N/A #ELK HTS DOT N/A 38 37 96 W1 N/A #GLENWOOD N/A 37 34 89 CALM 30.06S #NELSON 3SW N/A 34 32 92 CALM 30.24S #NILE N/A 34 31 89 W1 29.31S #TROUT LAKE 1NE N/A 38 36 92 CALM 30.05S #TROUT LAKE 1E N/A 38 37 96 CALM 30.03S $$ WAZ521-021810- SIMCOE HIGHLANDS CITY SKY/WX TMP DP RH WIND PRES REMARKS #SATUS PASS DOT N/A 44 23 43 N5 N/A #CENTERVILLE 1SWN/A 43 37 79 CALM 30.00S #LYLE 6NE N/A 41 37 86 CALM 30.04S #PITT 4SE N/A 41 37 86 SW2 30.06R $$ WAZ026-021810- KITTITAS VALLEY CITY SKY/WX TMP DP RH WIND PRES REMARKS ELLENSBURG AP FAIR 40 33 76 S5 29.99R #ELLENSBURG CWU N/A 39 34 82 CALM 29.96S #ELLENSBURG 3NE N/A 39 36 89 N2 28.06S #ELLENSBURG 1E N/A 36 33 89 CALM 30.03F #KITTITAS 3S N/A 34 32 92 CALM 30.02S #MANASTASH RDG N/A 39 31 73 NW5 N/A #ROCKY CYN DOT N/A 40 36 85 W2 N/A #RYEGRASS DOT N/A 36 32 85 CALM N/A $$ WAZ027-021810- YAKIMA VALLEY CITY SKY/WX TMP DP RH WIND PRES REMARKS SUNNYSIDE AP FAIR 47 37 68 CALM 30.01S YAKIMA AIRPORT FAIR 43 33 67 CALM 30.01R YAKIMA-VAGABOND FAIR 41 33 73 CALM 29.98R #MABTON N/A 44 40 86 CALM 30.00F #NACHES 2SW N/A 40 33 76 NW1 29.98S #OUTLOOK DOT N/A 46 38 73 CALM N/A #PARKER DOT N/A 48 36 63 CALM N/A #TERRACE HTS N/A 42 38 86 CALM 30.00S #TOPPENISH N/A 41 36 82 CALM 29.94R #I82 S UMTANUM RN/A 45 33 63 S2 N/A #UNION GAP DOT N/A 41 35 79 E2 N/A #ZILLAH DOT N/A 44 34 68 NE3 N/A $$ WAZ028-021810- LOWER COLUMBIA BASIN...WASHINGTON CITY SKY/WX TMP DP RH WIND PRES REMARKS PASCO FAIR 46 37 71 CALM 30.02S PROSSER AWOS N/A 46 41 83 CALM 30.03F RICHLAND AWOS FAIR 54 38 55 S6 30.01F #BASIN CITY 5SW N/A 47 38 71 S5 29.98S #BENTON CITY N/A 48 37 65 W1 29.92R #CONNELL 5N N/A 43 38 82 SE1 30.01F #ELTOPIA 6NW N/A 47 38 71 CALM 28.97S #KAHLOTUS N/A 47 37 68 W13 29.99S WCI 41 #KENNEWICK 3S N/A 50 39 66 SE2 30.01S #PROSSER DOT N/A 47 37 68 CALM N/A #SAGEMOOR 2W N/A 49 39 68 SW7 29.86S #TOUCHET 2S N/A 52 35 52 CALM 30.01R $$ WAZ029-021810- FOOTHILLS OF THE BLUES...WASHINGTON CITY SKY/WX TMP DP RH WIND PRES REMARKS WALLA WALLA AP CLOUDY 50 32 50 W8 30.01R #CLYDE 6NW N/A 48 37 65 SW7 30.00R #DELANEY DOT N/A 54 31 41 S3 N/A #LOWDEN 2SE N/A 52 37 56 CALM 29.99R #PRESCOTT N/A 54 35 48 SW2 30.01R #WALLA WALLA 5E N/A 51 35 54 N5 N/A #WHITMAN MISSIONN/A 53 35 50 W2 30.00R $$ WAZ030-021810- BLUE MOUNTAINS...WASHINGTON CITY SKY/WX TMP DP RH WIND PRES REMARKS $$ ORZ009-041-WAZ024-021810- COLUMBIA RIVER GORGE CITY SKY/WX TMP DP RH WIND PRES REMARKS THE DALLES AP FAIR 43 36 76 VRB6 30.06S #CELILO DOT N/A 41 35 79 SW3 N/A #LYLE N/A 41 36 82 N5 30.08F #MARYHILL N/A 44 37 76 N6 N/A #RUFUS DOT N/A 45 36 70 NW1 N/A $$ ORZ510-021810- NORTH CENTRAL OREGON CITY SKY/WX TMP DP RH WIND PRES REMARKS #ANTELOPE N/A 41 32 70 CALM 29.93R #COW CYN RST AREN/A 42 28 57 W8 N/A #DUFUR N/A 46 39 76 CALM 30.01F #DUFUR 9E N/A 46 36 68 CALM 30.08R #GRASS VALLEY 1SN/A 48 33 56 SW14 29.97F WCI 42 #KENT DOT N/A 49 25 39 SW6 N/A #SHANIKO 5WSW N/A 41 29 62 CALM N/A #WAPANITIA AIRPON/A 50 34 54 CALM 30.04F #WASCO DOT N/A 47 40 76 NW2 N/A #WASCO 5NE N/A 46 38 73 W7 30.02S $$ ORZ511-021810- CENTRAL OREGON CITY SKY/WX TMP DP RH WIND PRES REMARKS BEND AIRPORT FAIR 46 25 43 S7 30.04F MADRAS AIRPORT FAIR 45 30 55 MISG 30.06S PRINEVILLE AP FAIR 43 28 55 SE5 30.04F REDMOND AIRPORT FAIR 44 25 47 S8 30.03S #ASHWOOD SCHOOL N/A 41 32 70 CALM 29.99S #BEND-KIM LN N/A 43 33 67 E2 30.00F #CULVER N/A 43 31 62 CALM 29.53S #PRINEVILLE N/A 41 32 70 CALM 30.16F $$ ORZ509-021810- EAST SLOPES OF OREGON CASCADES CITY SKY/WX TMP DP RH WIND PRES REMARKS SUNRIVER AWOS FAIR 34 27 75 S10 30.08F #BLUE BOX PASS N/A 39 N/A N/A CALM N/A #CAMP SHERMAN N/A 30 27 88 CALM 30.17S #LAVA BUTTE DOT N/A 40 20 44 N1 N/A #SISTERS ODOT N/A 42 27 55 SW2 N/A #TUMALO 3W N/A 46 28 49 E1 29.88F #WANOGA BUTTE D N/A 36 22 56 SW3 N/A $$ ORZ044-021810- LOWER COLUMBIA BASIN...OREGON CITY SKY/WX TMP DP RH WIND PRES REMARKS HERMISTON MOCLDY 53 38 57 S6 30.03R #BOARDMAN SCHOOLN/A 46 40 79 W2 29.98S #ECHO 8SW N/A 54 39 57 SW5 30.05R #I-84 EX 198 DOTN/A 53 37 54 E6 N/A #IONE SCHOOL N/A 51 33 50 W2 30.03S #UMATILLA N/A 49 36 61 S1 29.96R $$ ORZ507-021810- NORTHERN FOOTHILLS OF THE BLUES CITY SKY/WX TMP DP RH WIND PRES REMARKS PENDLETON AIRPT FAIR 49 30 48 S10 30.02R #ATHENA N/A 49 30 48 S2 30.05R #CAYUSE N/A 46 34 63 CALM 30.01R #HELIX SCHOOL N/A 42 34 73 CALM 30.03R #HELIX 3N N/A 47 34 60 S6 30.02R #HOLDMAN 6E N/A 49 35 58 S7 29.82R #M-FREEWATER 5SEN/A 51 31 46 E6 30.00R #PDT SUNRIDGE N/A 49 34 56 CALM 29.99R #PENDLETON 6SE N/A 48 33 56 E1 29.98R #TUTUILLA N/A 44 31 60 CALM 30.06R #UMAPINE 2E N/A 52 34 50 CALM 30.01R #WESTON SCHOOL N/A 49 23 36 SW3 29.72R $$ ORZ508-021810- SOUTHERN FOOTHILLS OF THE BLUES CITY SKY/WX TMP DP RH WIND PRES REMARKS #HEPPNER EOC N/A 52 30 43 CALM 29.95S #HEPPNER 4NE N/A 49 31 50 SW3 30.01S $$ ORZ502-503-021810- BLUE MOUNTAINS CITY SKY/WX TMP DP RH WIND PRES REMARKS MEACHAM CLOUDY 40 25 55 CALM 30.01R #BATTLE MTN DOT N/A 36 22 56 S3 N/A #LADD CYN SMT N/A 33 24 69 E15 N/A WCI 23 #LADD CREEK ODOTN/A 38 23 54 W12 N/A WCI 30 #N POWDER DOT N/A 29 22 75 SW3 N/A #TOLLGATE N/A 32 29 89 CALM 30.03S #TROY SCHOOL N/A 40 34 79 CALM 29.95F #WESTON 4E N/A 42 27 55 CALM 30.01S $$ ORZ505-021810- JOHN DAY BASIN CITY SKY/WX TMP DP RH WIND PRES REMARKS JOHN DAY FAIR 38 27 64 E3 30.05F #DAYVILLE SCHOOLN/A 38 29 70 SE1 30.03F #MITCHELL 8NW N/A 43 29 57 NW1 30.05R #MONUMENT HS N/A 38 26 62 N1 30.03F $$ ORZ506-021810- OCHOCO AND JOHN DAY HIGHLANDS CITY SKY/WX TMP DP RH WIND PRES REMARKS #BUCK CREEK DOT N/A 36 25 64 SE8 N/A #HORSE RIDGE DO N/A 37 23 56 E2 N/A #KEYES SMT DOT N/A 38 22 52 E6 N/A #PAULINA ODOT N/A 34 N/A N/A E1 N/A #PRAIRIE CITY N/A 32 18 56 SE1 30.01S #SENECA 9NW N/A 14 11 88 CALM 30.23F $$ ORZ049-021810- GRANDE RONDE VALLEY CITY SKY/WX TMP DP RH WIND PRES REMARKS LA GRANDE FAIR 42 24 48 S28G32 30.05F WCI 32 #COVE SCHOOL N/A 38 26 62 SE2 30.06S #COVE 6NW N/A 39 28 64 SE6 30.11S #ELGIN 1E N/A 44 26 49 W3 N/A #IMBLER SCHOOL N/A 37 27 67 CALM 30.02R #ISLAND CITY 4N N/A 40 39 96 CALM 30.10R #LADD CYN DOT N/A 40 25 55 S31G40 N/A WCI 28 #UNION 1S N/A 37 26 64 SE7 30.13S $$ ORZ050-021810- WALLOWA COUNTY CITY SKY/WX TMP DP RH WIND PRES REMARKS JOSEPH AIRPORT PTCLDY 33 23 66 CALM 30.03F #ENTERPRISE HS N/A 31 26 81 CALM 30.06F #IMNAHA SCHOOL N/A 47 29 49 N8 30.08F #JOSEPH 3N N/A 25 19 78 CALM 30.05F #LOSTINE N/A 30 25 81 NE1 29.97F #LOSTINE 3SE N/A 34 25 69 CALM 30.11R #WALLOWA SCHOOL N/A 31 27 85 CALM 30.20R $$

USA.gov is the U.S. government's official web portal to all federal, state and local government web resources and services.